Miscellaneous Local Product
Issued by NWS North Platte, NE

Home | Current Version | Previous Version | Text Only | Print | Product List | Glossary On
Versions: 1 2 3 4 5 6 7 8 9 10 11 12 13 14 15 16 17 18 19 20 21 22 23 24 25 26 27 28 29 30 31 32 33 34 35 36 37 38 39 40 41 42 43 44 45 46 47 48 49 50
000
AXUS43 KLBF 280610
MISLBF


WESTERN AND NORTH CENTRAL NEBRASKA HOURLY WEATHER ROUNDUP
NATIONAL WEATHER SERVICE NORTH PLATTE NE
100 AM CDT FRI AUG 28 2015

NOTE: "FAIR" INDICATES FEW OR NO CLOUDS BELOW 12,000 FEET WITH NO
SIGNIFICANT WEATHER AND/OR OBSTRUCTIONS TO VISIBILITY.

NOTE: STATIONS NOT REPORTING VARIABLES SUCH AS SKY/WEATHER OR
PRESSURE ARE PROVIDED BY THE NEBRASKA DEPARTMENT OF
ROADS...RAWS...AND APRS NETWORKS...AND ARE NOT UNDER
NATIONAL WEATHER SERVICE QUALITY CONTROL.

...OBSERVATIONS IN AND NEAR THE EASTERN PANHANDLE OF NEBRASKA...

CITY           SKY/WX    TMP DP  RH WIND       PRES   REMARKS
PINE RIDGE     PTCLDY    54  52  93 CALM      30.03S
CHADRON        PTCLDY    55  52  89 W7        30.03R
ALLIANCE       PTCLDY    53  51  93 W8        30.04F
SIDNEY         PTCLDY    58  54  86 NW8       30.08F
CRESCENT LAKE    N/A     59  56  89 N3          N/A
BIG SPRINGS      N/A     61  58  91 CALM        N/A
$$

...OBSERVATIONS IN NORTH CENTRAL NEBRASKA...

CITY           SKY/WX    TMP DP  RH WIND       PRES   REMARKS
THEDFORD       PTCLDY    67  65  93 NW6       29.95F
AINSWORTH      CLOUDY    70  69  98 N6        29.91F FOG
O`NEILL        CLOUDY    70  69  97 E10       29.89F
ORD            PTCLDY    68  65  90 SE5       29.84F
BROKEN BOW     PTCLDY    69  67  93 NW3       29.88F
SPRINGVIEW       N/A     71  68  90 CALM        N/A
SARGENT          N/A     67  66  98 CALM        N/A
CHAMBERS         N/A     68  67  96 E5          N/A
EWING            N/A     67  64  89 E6G13       N/A
$$

...OBSERVATIONS IN SOUTHWEST NEBRASKA AND FAR NORTHEAST COLORADO...

CITY           SKY/WX    TMP DP  RH WIND       PRES   REMARKS
WRAY           FAIR      65  61  87 W6        30.04F
HOLYOKE        FAIR      64  55  72 NW6       30.04F
IMPERIAL       CLEAR     66  60  81 NW12      30.00R
OGALLALA       PTCLDY    66  61  82 NW7       30.00R
NORTH PLATTE   PTCLDY    68  65  90 N8        29.93S
MCCOOK         CLEAR     71  64  78 NW10      29.92R
LEXINGTON      CLEAR     69  67  94 W6        29.89R
PAXTON           N/A     68  63  83 NW7         N/A
BRADY            N/A     67  65  92 CALM        N/A
CALLAWAY         N/A     70  68  95 NW7         N/A
$$

...OBSERVATIONS IN CENTRAL LINCOLN COUNTY AREA...

CITY           SKY/WX    TMP DP  RH WIND       PRES   REMARKS
N.P. AIRPORT   PTCLDY    68  65  90 N8        29.93S
N.P. DOWNTOWN    N/A     69  65  88 NW6         N/A
N.P. SOUTHEAST   N/A     69  65  86 N3G12       N/A
$$

...SOME OBSERVATIONS FROM AROUND THE REGION...

CITY           SKY/WX    TMP DP  RH WIND       PRES   REMARKS
DENVER         MOCLDY    65  56  72 SW7       30.17F
LARAMIE        PTCLDY    55  50  83 NW15      30.32S
CHEYENNE       MOCLDY    62  49  62 NW3       30.23R
SCOTTSBLUFF    MOCLDY    62  56  80 N5        30.08S
RAPID CITY     CLEAR     60  58  92 SE3       30.01F
PIERRE         CLOUDY    68  67  96 E3        29.91R
WINNER         CLOUDY    70  68  93 NE5       29.90F FOG
SIOUX FALLS    LGT RAIN  65  63  93 SE12      29.94F
OMAHA          TSTM      69  67  93 E6        29.98R
GRAND ISLAND   FAIR      75  65  70 SW16G31   29.84S
KANSAS CITY    CLOUDY    71  65  81 SE12      29.98F
WICHITA        LGT RAIN  73  70  90 SE6       29.98R
HAYS           FAIR      77  59  53 S24G30    29.88F
LIBERAL        FAIR      75  61  60 W9        29.99R
GOODLAND       MOCLDY    69  60  73 NW9       30.01S
$$



USA.gov is the U.S. government's official web portal to all federal, state and local government web resources and services.